sat.trackr.live / text

‹ back to catalog

LEMUR-2-EMBRIONOVIS

NORAD 56970 · 2023-084AQ

PAYLOAD ACTIVE UNKNOWN

§ Identity

Operator
Country
US
Launch date
2023-06-12
Launch site
AFWTR
Launch vehicle
Mass (kg)
RCS (m²)

Purposes: earth_obs

External: N2YO · Heavens-Above · Gunter

§ Orbital elements

Epoch: 2026-05-24T23:07:04.914048Z

Period
93.70 min
Inclination
97.6259°
Eccentricity
0.0009505
Mean motion
15.36874661 rev/d
Perigee alt
448.9 km
Apogee alt
461.9 km
Semi-major
6,833.5 km
B*
3.3612e-4
RAAN
288.2875°
Arg perigee
45.4156°
Mean anomaly
314.7862°
Rev number
16,411

§ Raw data

LEMUR-2-EMBRIONOVIS1 56970U 23084AQ  26144.96325132  .00012053  00000+0  33612-3 0  99902 56970  97.6259 288.2875 0009505  45.4156 314.7862 15.36874661164112

JSON: /api/v1/satellites/56970 · /tle

For live sub-satellite position, see the globe view (requires WebGL).

§ Visibility from observer

Set your observer location to see the next 7 days of passes ≥ 10°. The values pass through the URL so the page stays shareable.

No JS? Fill the form by hand. The geolocation button needs JavaScript.